Regional Weather Roundup
Issued by NWS

Home | Current Version | Previous Version | Graphics & Text | Print | Product List | Glossary Off
Versions: 1 2 3 4 5 6 7 8 9 10 11 12 13 14 15 16 17 18 19 20 21 22 23 24 25 26 27 28

000
ASUS45 KBOI 250010
RWRID

IDAHO REGIONAL WEATHER ROUNDUP
NATIONAL WEATHER SERVICE BOISE ID
600 PM MDT MON APR 24 2017

NOTE: "FAIR" INDICATES FEW OR NO CLOUDS BELOW 12000 FEET
WITH NO SIGNIFICANT WEATHER AND/OR OBSTRUCTIONS TO VISIBILITY

IDZ012-014-250100-
SOUTHWEST IDAHO


CITY           SKY/WX    TMP DP  RH WIND       PRES   REMARKS
BOISE          PTSUNNY   52  42  69 W12       29.70S
CALDWELL       PTSUNNY   52  41  66 SW20G28   29.70R
MOUNTAIN HOME  LGT RAIN  52  43  71 W14       29.71S
$$

IDZ016-017-250100-
SOUTHCENTRAL IDAHO


CITY           SKY/WX    TMP DP  RH WIND       PRES   REMARKS
BURLEY         PTSUNNY   48  37  65 W14G23    29.67F
JEROME         PTSUNNY   50  36  58 SW23      29.69S
TWIN FALLS     MOSUNNY   51  38  60 W17       29.70S
$$

IDZ019>023-250100-
SOUTHEAST IDAHO


CITY           SKY/WX    TMP DP  RH WIND       PRES   REMARKS
IDAHO FALLS    CLOUDY    47  42  83 S20G29    29.62F
POCATELLO      CLOUDY    47  42  83 SW23      29.66S
REXBURG        CLOUDY    44  38  79 S10G21    29.61F
$$

IDZ006-010-011-018-031-032-250100-
CENTRAL IDAHO MOUNTAINS


CITY           SKY/WX    TMP DP  RH WIND       PRES   REMARKS
MCCALL         CLOUDY    43  34  70 VRB5      29.65S
HAILEY         MOSUNNY   52  30  43 W12       29.60F
STANLEY          N/A     40  27  59 N9        29.65F WCI  34
SALMON         CLOUDY    45  36  70 CALM      29.61F
CHALLIS        LGT RAIN  47  37  68 CALM      29.58F
$$

IDZ002-004-006-007-026-250100-
NORTHERN IDAHO


CITY           SKY/WX    TMP DP  RH WIND       PRES   REMARKS
LEWISTON       PTSUNNY   56  42  59 CALM      29.67F
LOWELL           N/A     53  47  79 N3        29.66R
COEUR D`ALENE  LGT RAIN  47  43  86 W7        29.69S
MULLAN PASS    PTSUNNY   36  32  85 CALM      29.63F
$$




USA.gov is the U.S. government's official web portal to all federal, state and local government web resources and services.